SL-16 DEB, 42246

Orbit data source: Space-Track

SL-16 DEB, 42246 is space debris in LEO originally from a launch on Fri, 26 Mar 1993 UTC launched from the Tyuratam Missile And Space Complex (TTMTR). Debris objects in space refer to the collection of defunct objects orbiting the Earth. Examples of debris include non-operational satellites, rocket bodies, and fragments generated from explosions, collisions, or faulty payload assembly.

Loading next visibility...
SL-16 DEB details
Identifier
42246, 1993-016DA
Orbit
LEO
Last TLE update8 months ago
Origin
Flag of CISRVSN RF (CIS)
ManufacturerUnknown
MissionSpacecraft
Bus & MotorUnknown
MassUnknown
Launch date (UTC)
1993-03-26 (32 years ago)
Launch vehicleUnknown
Launch site
Tyuratam Missile And Space Complex (TTMTR)
Object type
Payload
Rocket body
Debris
Shape & HBRUnknown
Radar Cross SectionSmall (<0.1 m²)

Expand to show TLE details & history

TLE from 8 months ago
0 SL-16 DEB
1 42246U 93016DA  24129.61691938  .00025194  00000-0  70294-2 0  9993
2 42246  70.9456 111.8077 0096516 272.2374  86.7715 14.43454396544673
Epoch: 2024-05-08T14:48Z
Definitive object data (Epoch: 2024-05-08T14:48:21.834Z)
Latitude0.00004°
Longitude22.79318°
Altitude746.325 km
Speed7.484 km/s
True Right ascension07h 27m 13s
True Declination0° 00' 00"
Sunlit
Object was in daylight at TLE epoch
Visualization TLE readout
Latitude29.23518°
Longitude35.39629°
Altitude733.259 km
Speed7.477 km/s
Apparent Right ascension05h 02m 30s
Apparent Declination-6° 18' 55"
Sunlit
Object is in daylight
Visualization observer readout
Local Sidereal Time12:12:35
Azimuth276.48° WNW
Elevation-17.463°
Doppler factor1
Orbital elements
Apogee altitude813.76 km
Perigee altitude676.26 km
Semi-major axis7,123.147 km
Eccentricity0.0096516
Inclination70.9456°
RAAN111.8077°
Arg. of periapsis272.2374°
True anomaly87.87642°
Mean anomaly86.7715°
Eccentric anomaly87.32389°
Mean motion3.61023 °/min
BSTAR0.0070294
Orbital period99.72 mins
Loading maneuver chart data...
Loading historical data...
Loading historical data...
Loading historical data...
Loading historical data...
Loading historical data...
Loading historical data...
Loading historical data...

SL-16 DEB Visibility forecast

Observer location: undefined°, undefined

Span
Click to sort rows by Start time (UTC) header in descending order
Start Az.
Max El. time (UTC)
Max El. Az.
Max El.
End time (UTC)
End Az.
9 mins2024-12-26 22:10:00.702Z178.747° S2024-12-26 22:14:00.702Z112.888° SE37.107°2024-12-26 22:19:00.702Z34.344° NE
6 mins2024-12-26 23:53:00.702Z269.509° W2024-12-26 23:55:00.702Z298.087° NW20.09°2024-12-26 23:59:00.702Z352.294° N
4 mins2024-12-27 06:51:00.702Z26.638° NE2024-12-27 06:53:00.702Z53.074° ENE15.472°2024-12-27 06:55:00.702Z78.972° E
8 mins2024-12-27 08:31:00.702Z329.573° NNW2024-12-27 08:34:00.702Z287.546° WNW42.46°2024-12-27 08:39:00.702Z167.276° S
|